Regional Weather Roundup
Issued by NWS

Home | Current Version | Previous Version | Graphics & Text | Print | Product List | Glossary Off
Versions: 1 2 3 4 5 6 7 8 9 10 11 12 13 14 15 16 17 18 19 20 21 22 23 24 25 26 27 28 29 30 31 32 33 34 35 36 37 38 39 40 41 42 43 44 45 46 47 48 49 50

000
ASUS43 KLSX 291159
RWRMO

WEATHER SUMMARY FOR MISSOURI
NATIONAL WEATHER SERVICE SPRINGFIELD MO
700 AM CDT WED JUL 29 2015

NOTE: "FAIR" INDICATES FEW OR NO CLOUDS BELOW 12,000 FEET WITH NO
       SIGNIFICANT WEATHER AND/OR OBSTRUCTIONS TO VISIBILITY.
       CURRENT SKY AND/OR WEATHER CONDITIONS ARE NOT AVAILABLE FOR
       CHILLICOTHE AND FARMINGTON.

MOZ001>031-035>038-043-044-053-054-291300-
...NORTHERN AND WESTERN MISSOURI...

CITY           SKY/WX    TMP DP  RH WIND       PRES   REMARKS
KANSAS CTY INT LGT RAIN  71  70  96 NW13      30.07R
6HR MIN TEMP:  70; 6HR MAX TEMP:  83; 6HR PCP:  1.23;

KANSAS C DTWN  LGT RAIN  73  70  90 S7        30.05S
6HR MIN TEMP:  73; 6HR MAX TEMP:  87; 6HR PCP:  0.24;

LEE`S SUMMIT   MOCLDY    71  69  93 S3        30.07F
6HR MIN TEMP:  71; 6HR MAX TEMP:  83; 6HR PCP:  0.30;

ST JOSEPH      CLOUDY    72  72 100 CALM      30.10R
6HR MIN TEMP:  71; 6HR MAX TEMP:  78;

CHILLICOTHE      N/A     73  71  93 VRB6      30.08R
6HR MIN TEMP:  72; 6HR MAX TEMP:  77; 6HR PCP:  2.08;

KIRKSVILLE     LGT RAIN  71  70  96 N8        30.05F
6HR MIN TEMP:  70; 6HR MAX TEMP:  78; 6HR PCP:  0.29;


$$
MOZ066>068-077>081-088>096-101>105-291300-
...SOUTHWEST MISSOURI...

CITY           SKY/WX    TMP DP  RH WIND       PRES   REMARKS
SPRINGFIELD    MOCLDY    77  73  87 NW3       30.07R
6HR MIN TEMP:  74; 6HR MAX TEMP:  80;

JOPLIN         MOCLDY    76  74  93 N8G20     30.08R
6HR MIN TEMP:  72; 6HR MAX TEMP:  79;


$$
MOZ032>034-039>042-045>050-055>058-069>072-291300-
...CENTRAL MISSOURI...

CITY           SKY/WX    TMP DP  RH WIND       PRES   REMARKS
COLUMBIA       PTCLDY    73  69  87 CALM      30.04S
6HR MIN TEMP:  72; 6HR MAX TEMP:  79; 6HR PCP: TRACE;

JEFFERSON CITY CLEAR     74  68  81 NW3       30.03R
6HR MIN TEMP:  74; 6HR MAX TEMP:  82;

ROLLA          CLEAR     76  74  93 NW7       30.04S FOG
6HR MIN TEMP:  75; 6HR MAX TEMP:  79;

SEDALIA        MOCLDY    73  69  87 SE3       30.05F
6HR MIN TEMP:  73; 6HR MAX TEMP:  80;

OSAGE BEACH    CLEAR     73  70  88 CALM      30.07R

$$
MOZ051-052-059>065-291300-
...EAST CENTRAL MISSOURI...

CITY           SKY/WX    TMP DP  RH WIND       PRES   REMARKS
ST LOUIS INTL  PTSUNNY   83  76  79 NW10      30.00R HX  91
6HR MIN TEMP:  83; 6HR MAX TEMP:  87;

SPIRIT OF STL  PTCLDY    80  77  90 W6        30.00R
6HR MIN TEMP:  78; 6HR MAX TEMP:  83;

ST CHARLES     MOSUNNY   80  74  81 N12G23    29.99R
6HR MIN TEMP:  78; 6HR MAX TEMP:  81;


$$
MOZ072>076-082>087-097>100-106>115-291300-
...SOUTH CENTRAL AND SOUTHEAST MISSOURI...

CITY           SKY/WX    TMP DP  RH WIND       PRES   REMARKS
CAPE GIRARDEAU SUNNY     77  75  93 CALM      30.00R
6HR MIN TEMP:  75; 6HR MAX TEMP:  81;

FARMINGTON     PTCLDY    75  73  94 CALM      30.07R
6HR MIN TEMP:  73; 6HR MAX TEMP:  77;

POPLAR BLUFF   PTCLDY    80  77  90 CALM      29.99S FOG
6HR MIN TEMP:  78; 6HR MAX TEMP:  81;

WEST PLAINS    CLEAR     77  73  87 W5        30.07R FOG
6HR MIN TEMP:  75; 6HR MAX TEMP:  80;


$$


USA.gov is the U.S. government's official web portal to all federal, state and local government web resources and services.